Location: Aldenham
(51.6667°N, 0.3500°W)
Time: 18:00:50
(UTC+00:00)

Explorer 7 - Pass Details

Date: 21 February 2026
Orbit: 430 x 542 km, 50.2° (Epoch: 8 March)

Event Time Altitude Azimuth Distance (km) Brightness Sun altitude
Rises 13:32:37 0° 208° (SSW) 2,402 11.4 25.7°
Reaches altitude 10° 13:35:11 10° 188° (S) 1,550 10.8 25.5°
Maximum altitude 13:37:35 18° 144° (SE) 1,176 9.1 25.4°
Drops below altitude 10° 13:40:03 10° 100° (E) 1,589 9.1 25.2°
Sets 13:42:43 0° 81° (E) 2,490 9.9 25.1°
